Current Weather Conditions
Home Hang gliding Paragliding Powered Parachute Powered Paragliding Skydiving Ultralight Weather Aviation Shirts
WEATHER DATA:
Weather observations for the past three days for
Edwards Air Force Auxiliary North Base
Imperial (Metric)
Date Time (pdt) Wind (mph) Vis. (mi.) Weather Sky Cond. Temperature (F) Relative Humidity Wind Chill (F) Heat Index (F) Pressure Precipitation (in)
Air Dwpt 6 hour altimeter (in) sea level (mb) 1 hr 3 hr 6 hr
Max. Min.
25 05:55 S 7 10.00 Fair CLR 77.7 52.7 42% 79 30.09 1015.8
25 04:55 S 7 10.00 Fair CLR 79.5 52.3 88.5 79.5 39% 80 30.08 1015.4
25 03:55 S 10 10.00 Fair CLR 80.6 51.8 37% 80 30.07 1014.9
25 02:55 S 8 10.00 Fair CLR 80.8 52 37% 80 30.08 1015.3
25 00:55 S 10 10.00 Fair CLR 84.4 52.9 34% 83 30.08 1015.3
24 23:55 S 9 10.00 Fair CLR 86.4 53.8 33% 85 30.08 1015.3
24 22:55 S 9 10.00 Fair CLR 88.7 54.1 107.8 88.7 31% 87 30.08 1015.3
24 21:55 SW 8 10.00 Fair CLR 93.2 53.2 26% 91 30.07 1014.9
24 20:55 S 8 10.00 Fair CLR 94.3 56.1 28% 93 30.04 1014.0
24 19:55 SW 12 9.00 Fair CLR 97.3 56.7 26% 96 30.03 1013.8
24 17:55 S 21 G 26 9.00 Fair and Breezy CLR 105.8 53.4 18% 104 29.99 1012.4
24 16:55 SW 21 G 26 9.00 Fair and Breezy CLR 107.6 53.4 110.1 99.9 17% 106 29.99 1012.4
24 15:55 SW 18 G 24 10.00 Fair CLR 109 54.5 17% 108 30 1012.6
24 14:55 S 8 G 23 9.00 A Few Clouds FEW310 107.8 53.4 17% 106 30.01 1012.9
24 13:55 S 5 9.00 Fair CLR 107.4 54.9 18% 106 30.03 1013.5
24 12:55 E 3 9.00 A Few Clouds FEW310 FEW340 105.6 56.3 20% 105 30.05 1014.2
24 11:55 SE 5 10.00 Fair CLR 102.6 55 21% 101 30.07 1014.9
24 10:55 Calm 10.00 Fair CLR 99.9 56.5 99.9 76.3 24% 99 30.08 1015.3
24 09:55 Calm 10.00 Fair CLR 95.9 56.5 27% 94 30.09 1015.7
24 08:55 Calm 9.00 Fair CLR 90.7 55.8 31% 89 30.1 1016.3
24 07:55 Calm 10.00 Fair CLR 85.5 53.8 34% 84 30.1 1016.5
24 06:55 Calm 10.00 Fair CLR 80.2 53.6 40% 80 30.08 1015.6
24 05:55 Calm 10.00 A Few Clouds FEW190 76.8 52.5 43% 78 30.06 1014.9
24 04:55 Calm 10.00 Fair CLR 76.8 57.7 89.1 76.8 52% 79 30.04 1014.0
24 03:55 W 3 10.00 A Few Clouds FEW190 79 56.5 46% 80 30.02 1013.2
24 02:55 SE 5 10.00 Partly Cloudy SCT180 82.2 52.5 36% 81 30.01 1012.9
24 01:55 Calm 10.00 A Few Clouds FEW190 85.1 55 36% 84 30 1012.4
24 00:55 S 6 10.00 Fair CLR 86 56.7 37% 85 30 1012.5
23 23:55 S 10 10.00 Partly Cloudy SCT150 SCT170 SCT190 87.4 59.4 39% 87 30.01 1012.9
23 22:55 SE 9 10.00 Partly Cloudy FEW160 SCT190 88.9 60.6 107.6 85.1 39% 89 30 1012.5
23 21:55 S 8 10.00 Partly Cloudy SCT160 90.3 59.7 36% 90 30 1012.6
23 20:55 Calm 10.00 Mostly Cloudy BKN170 88.7 61.2 40% 89 29.98 1012.2
23 19:55 NW 21 10.00 Partly Cloudy and Breezy SCT190 85.5 63.5 48% 87 29.96 1011.7
23 18:55 W 12 9.00 Thunderstorm in Vicinity CLR 97.9 57 26% 97 29.94 1010.8
23 17:55 SE 23 9.00 Partly Cloudy and Breezy SCT120 101.3 57.7 24% 101 29.91 1009.8
23 16:55 SW 15 8.00 Thunderstorm in Vicinity CLR 107.8 53.4 111.4 99.5 17% 106 29.88 1008.5
23 15:55 SW 12 10.00 Fair CLR 109.9 51.8 15% 108 29.89 1008.8
23 14:55 S 3 9.00 Fair CLR 107.6 51.6 16% 105 29.9 1009.0
23 13:55 SE 7 9.00 A Few Clouds FEW280 108 52 16% 106 29.92 1009.8
23 12:55 Calm 10.00 A Few Clouds FEW320 104.2 52.2 18% 102 29.93 1010.1
23 11:55 E 5 10.00 A Few Clouds FEW350 103.6 53.2 19% 102 29.95 1010.8
23 10:55 Calm 10.00 Fair CLR 99.9 54.1 99.9 76.8 22% 98 29.96 1011.2
23 09:55 Calm 10.00 Fair CLR 96.1 53.4 24% 94 29.96 1011.3
23 08:55 Calm 10.00 Fair CLR 90.3 48.6 24% 87 29.96 1011.4
23 07:55 S 3 10.00 Fair CLR 84 47.3 28% 82 29.96 1011.4
23 06:55 Calm 10.00 Fair CLR 80.4 44.2 28% 79 29.95 1011.0
23 04:55 NW 5 10.00 Fair CLR 78.8 45.5 88.9 78.6 31% 79 29.93 1010.2
23 03:55 W 7 10.00 A Few Clouds FEW180 81 46.6 30% 80 29.93 1010.1
23 02:55 E 7 10.00 Mostly Cloudy FEW130 BKN170 85.3 47.5 27% 83 29.93 1010.0
23 01:55 S 5 10.00 A Few Clouds FEW150 82.6 46.2 28% 81 29.91 1009.5
23 00:55 S 6 10.00 Partly Cloudy SCT160 85.3 46.4 26% 83 29.9 1009.0
22 23:55 S 8 10.00 Fair CLR 86.9 46.8 25% 84 29.88 1008.4
22 22:55 S 12 10.00 Fair CLR 88.9 45.1 108.3 88.9 22% 85 29.88 1008.4
22 21:55 S 15 10.00 Fair CLR 90.3 45 21% 87 29.87 1008.3
22 20:55 S 15 10.00 Fair CLR 93 48.6 22% 90 29.85 1007.6
22 19:55 S 16 9.00 Fair CLR 97.2 48 19% 94 29.83 1007.0
22 18:55 SW 17 G 23 9.00 Fair CLR 103.5 50 17% 100 29.81 1006.2
22 17:55 S 16 G 22 10.00 Fair CLR 106.7 51.1 16% 104 29.8 1005.8
22 16:55 S 15 G 22 10.00 Fair CLR 108.5 50.7 109.4 98.8 15% 106 29.81 1006.1
22 15:55 S 15 10.00 Fair CLR 108.7 50.9 15% 106 29.82 1006.5
22 14:55 S 10 10.00 Fair CLR 109 51.1 15% 106 29.84 1007.1
22 13:55 SW 10 10.00 Fair CLR 106.9 51.1 16% 104 29.86 1007.7
22 12:55 S 10 10.00 Fair CLR 106.2 48.9 15% 103 29.88 1008.4
22 11:55 S 5 9.00 A Few Clouds FEW350 103.6 46.9 15% 100 29.89 1008.8
22 10:55 SE 5 10.00 Fair CLR 98.6 34.9 98.6 75.7 11% 94 29.92 1009.9
22 09:55 Calm 10.00 Fair CLR 93 38.5 15% 89 29.93 1010.3
22 08:55 Calm 10.00 Fair CLR 88.3 39.4 18% 85 29.94 1010.8
22 07:55 E 3 10.00 Fair CLR 83.5 39.4 21% 81 29.95 1011.0
22 06:55 NE 5 10.00 Fair CLR 77.9 40.3 26% 78 29.93 1010.4
Date Time (pdt) Wind (mph) Vis. (mi.) Weather Sky Cond. Air Dwpt Max. Min. Relative Humidity Wind Chill (F) Heat Index (F) altimeter (in) sea level (mb) 1 hr 3 hr 6 hr
6 hour
Temperature (F) Pressure Precipitation (in)
3 day Weather History for - K9L2
Weather observations for the past three days for
Edwards Air Force Auxiliary North Base
Imperial (Metric)
Date Time (pdt) Wind (mph) Vis. (mi.) Weather Sky Cond. Temperature (F) Relative Humidity Wind Chill (F) Heat Index (F) Pressure Precipitation (in)
Air Dwpt 6 hour altimeter (in) sea level (mb) 1 hr 3 hr 6 hr
Max. Min.
25 05:55 S 7 10.00 Fair CLR 77.7 52.7 42% 79 30.09 1015.8
25 04:55 S 7 10.00 Fair CLR 79.5 52.3 88.5 79.5 39% 80 30.08 1015.4
25 03:55 S 10 10.00 Fair CLR 80.6 51.8 37% 80 30.07 1014.9
25 02:55 S 8 10.00 Fair CLR 80.8 52 37% 80 30.08 1015.3
25 00:55 S 10 10.00 Fair CLR 84.4 52.9 34% 83 30.08 1015.3
24 23:55 S 9 10.00 Fair CLR 86.4 53.8 33% 85 30.08 1015.3
24 22:55 S 9 10.00 Fair CLR 88.7 54.1 107.8 88.7 31% 87 30.08 1015.3
24 21:55 SW 8 10.00 Fair CLR 93.2 53.2 26% 91 30.07 1014.9
24 20:55 S 8 10.00 Fair CLR 94.3 56.1 28% 93 30.04 1014.0
24 19:55 SW 12 9.00 Fair CLR 97.3 56.7 26% 96 30.03 1013.8
24 17:55 S 21 G 26 9.00 Fair and Breezy CLR 105.8 53.4 18% 104 29.99 1012.4
24 16:55 SW 21 G 26 9.00 Fair and Breezy CLR 107.6 53.4 110.1 99.9 17% 106 29.99 1012.4
24 15:55 SW 18 G 24 10.00 Fair CLR 109 54.5 17% 108 30 1012.6
24 14:55 S 8 G 23 9.00 A Few Clouds FEW310 107.8 53.4 17% 106 30.01 1012.9
24 13:55 S 5 9.00 Fair CLR 107.4 54.9 18% 106 30.03 1013.5
24 12:55 E 3 9.00 A Few Clouds FEW310 FEW340 105.6 56.3 20% 105 30.05 1014.2
24 11:55 SE 5 10.00 Fair CLR 102.6 55 21% 101 30.07 1014.9
24 10:55 Calm 10.00 Fair CLR 99.9 56.5 99.9 76.3 24% 99 30.08 1015.3
24 09:55 Calm 10.00 Fair CLR 95.9 56.5 27% 94 30.09 1015.7
24 08:55 Calm 9.00 Fair CLR 90.7 55.8 31% 89 30.1 1016.3
24 07:55 Calm 10.00 Fair CLR 85.5 53.8 34% 84 30.1 1016.5
24 06:55 Calm 10.00 Fair CLR 80.2 53.6 40% 80 30.08 1015.6
24 05:55 Calm 10.00 A Few Clouds FEW190 76.8 52.5 43% 78 30.06 1014.9
24 04:55 Calm 10.00 Fair CLR 76.8 57.7 89.1 76.8 52% 79 30.04 1014.0
24 03:55 W 3 10.00 A Few Clouds FEW190 79 56.5 46% 80 30.02 1013.2
24 02:55 SE 5 10.00 Partly Cloudy SCT180 82.2 52.5 36% 81 30.01 1012.9
24 01:55 Calm 10.00 A Few Clouds FEW190 85.1 55 36% 84 30 1012.4
24 00:55 S 6 10.00 Fair CLR 86 56.7 37% 85 30 1012.5
23 23:55 S 10 10.00 Partly Cloudy SCT150 SCT170 SCT190 87.4 59.4 39% 87 30.01 1012.9
23 22:55 SE 9 10.00 Partly Cloudy FEW160 SCT190 88.9 60.6 107.6 85.1 39% 89 30 1012.5
23 21:55 S 8 10.00 Partly Cloudy SCT160 90.3 59.7 36% 90 30 1012.6
23 20:55 Calm 10.00 Mostly Cloudy BKN170 88.7 61.2 40% 89 29.98 1012.2
23 19:55 NW 21 10.00 Partly Cloudy and Breezy SCT190 85.5 63.5 48% 87 29.96 1011.7
23 18:55 W 12 9.00 Thunderstorm in Vicinity CLR 97.9 57 26% 97 29.94 1010.8
23 17:55 SE 23 9.00 Partly Cloudy and Breezy SCT120 101.3 57.7 24% 101 29.91 1009.8
23 16:55 SW 15 8.00 Thunderstorm in Vicinity CLR 107.8 53.4 111.4 99.5 17% 106 29.88 1008.5
23 15:55 SW 12 10.00 Fair CLR 109.9 51.8 15% 108 29.89 1008.8
23 14:55 S 3 9.00 Fair CLR 107.6 51.6 16% 105 29.9 1009.0
23 13:55 SE 7 9.00 A Few Clouds FEW280 108 52 16% 106 29.92 1009.8
23 12:55 Calm 10.00 A Few Clouds FEW320 104.2 52.2 18% 102 29.93 1010.1
23 11:55 E 5 10.00 A Few Clouds FEW350 103.6 53.2 19% 102 29.95 1010.8
23 10:55 Calm 10.00 Fair CLR 99.9 54.1 99.9 76.8 22% 98 29.96 1011.2
23 09:55 Calm 10.00 Fair CLR 96.1 53.4 24% 94 29.96 1011.3
23 08:55 Calm 10.00 Fair CLR 90.3 48.6 24% 87 29.96 1011.4
23 07:55 S 3 10.00 Fair CLR 84 47.3 28% 82 29.96 1011.4
23 06:55 Calm 10.00 Fair CLR 80.4 44.2 28% 79 29.95 1011.0
23 04:55 NW 5 10.00 Fair CLR 78.8 45.5 88.9 78.6 31% 79 29.93 1010.2
23 03:55 W 7 10.00 A Few Clouds FEW180 81 46.6 30% 80 29.93 1010.1
23 02:55 E 7 10.00 Mostly Cloudy FEW130 BKN170 85.3 47.5 27% 83 29.93 1010.0
23 01:55 S 5 10.00 A Few Clouds FEW150 82.6 46.2 28% 81 29.91 1009.5
23 00:55 S 6 10.00 Partly Cloudy SCT160 85.3 46.4 26% 83 29.9 1009.0
22 23:55 S 8 10.00 Fair CLR 86.9 46.8 25% 84 29.88 1008.4
22 22:55 S 12 10.00 Fair CLR 88.9 45.1 108.3 88.9 22% 85 29.88 1008.4
22 21:55 S 15 10.00 Fair CLR 90.3 45 21% 87 29.87 1008.3
22 20:55 S 15 10.00 Fair CLR 93 48.6 22% 90 29.85 1007.6
22 19:55 S 16 9.00 Fair CLR 97.2 48 19% 94 29.83 1007.0
22 18:55 SW 17 G 23 9.00 Fair CLR 103.5 50 17% 100 29.81 1006.2
22 17:55 S 16 G 22 10.00 Fair CLR 106.7 51.1 16% 104 29.8 1005.8
22 16:55 S 15 G 22 10.00 Fair CLR 108.5 50.7 109.4 98.8 15% 106 29.81 1006.1
22 15:55 S 15 10.00 Fair CLR 108.7 50.9 15% 106 29.82 1006.5
22 14:55 S 10 10.00 Fair CLR 109 51.1 15% 106 29.84 1007.1
22 13:55 SW 10 10.00 Fair CLR 106.9 51.1 16% 104 29.86 1007.7
22 12:55 S 10 10.00 Fair CLR 106.2 48.9 15% 103 29.88 1008.4
22 11:55 S 5 9.00 A Few Clouds FEW350 103.6 46.9 15% 100 29.89 1008.8
22 10:55 SE 5 10.00 Fair CLR 98.6 34.9 98.6 75.7 11% 94 29.92 1009.9
22 09:55 Calm 10.00 Fair CLR 93 38.5 15% 89 29.93 1010.3
22 08:55 Calm 10.00 Fair CLR 88.3 39.4 18% 85 29.94 1010.8
22 07:55 E 3 10.00 Fair CLR 83.5 39.4 21% 81 29.95 1011.0
22 06:55 NE 5 10.00 Fair CLR 77.9 40.3 26% 78 29.93 1010.4
Date Time (pdt) Wind (mph) Vis. (mi.) Weather Sky Cond. Air Dwpt Max. Min. Relative Humidity Wind Chill (F) Heat Index (F) altimeter (in) sea level (mb) 1 hr 3 hr 6 hr
6 hour
Temperature (F) Pressure Precipitation (in)


Weather History V4.0 ©2002- Airsports Net